| time (UTC) | temp C | wind direction | speed KPH | gust KPH | rain 1hr cm | rain 24hr cm | rain mn cm | humidity % | barometer mb |
| 20260905053053 | 15 | 284 | 0.0 | 0.0 | 0.00 | 0.00 | 0.00 | 89 | 1009.0 |
| 20260905052546 | 15 | 284 | 0.0 | 0.0 | 0.00 | 0.00 | 0.00 | 89 | 1009.0 |
| 20260905052040 | 15 | 284 | 0.0 | 0.0 | 0.00 | 0.00 | 0.00 | 89 | 1009.0 |
| 20260905051039 | 15 | 284 | 0.0 | 0.0 | 0.00 | 0.00 | 0.00 | 89 | 1009.0 |
| 20260905050540 | 15 | 284 | 0.0 | 0.0 | 0.00 | 0.00 | 0.00 | 88 | 1009.0 |
| 20260905050037 | 15 | 284 | 0.0 | 0.0 | 0.00 | 0.00 | 0.00 | 88 | 1009.0 |
| 20260905045529 | 15 | 285 | 0.0 | 0.0 | 0.00 | 0.00 | 0.00 | 88 | 1009.0 |
| 20260905045026 | 15 | 284 | 0.0 | 0.0 | 0.00 | 0.00 | 0.00 | 88 | 1009.0 |
| 20260905044528 | 15 | 285 | 0.0 | 0.0 | 0.00 | 0.00 | 0.00 | 88 | 1009.0 |
| 20260905044023 | 16 | 284 | 0.0 | 0.0 | 0.00 | 0.00 | 0.00 | 88 | 1008.7 |
| 20260905043515 | 16 | 284 | 0.0 | 0.0 | 0.00 | 0.00 | 0.00 | 88 | 1008.7 |
| 20260905043010 | 16 | 284 | 0.0 | 0.0 | 0.00 | 0.00 | 0.00 | 87 | 1008.7 |
| 20260905042508 | 16 | 285 | 0.0 | 0.0 | 0.00 | 0.00 | 0.00 | 87 | 1008.7 |
| 20260905041507 | 16 | 284 | 0.0 | 0.0 | 0.00 | 0.00 | 0.00 | 88 | 1008.7 |
| 20260905040502 | 16 | 284 | 0.0 | 0.0 | 0.00 | 0.00 | 0.00 | 88 | 1008.5 |
| 20260905040001 | 16 | 285 | 0.0 | 0.0 | 0.00 | 0.00 | 0.00 | 88 | 1008.5 |
| 20260905035459 | 16 | 285 | 0.0 | 0.0 | 0.00 | 0.00 | 0.00 | 88 | 1008.4 |
| 20260905034956 | 16 | 284 | 0.0 | 0.0 | 0.00 | 0.00 | 0.00 | 88 | 1008.4 |
| 20260905034453 | 16 | 284 | 0.0 | 0.0 | 0.00 | 0.00 | 0.00 | 88 | 1008.4 |
| 20260905033950 | 16 | 284 | 0.0 | 0.0 | 0.00 | 0.00 | 0.00 | 88 | 1008.3 |
| 20260905033449 | 17 | 284 | 0.0 | 3.2 | 0.00 | 0.00 | 0.00 | 88 | 1008.3 |
| 20260905032947 | 17 | 285 | 0.0 | 3.2 | 0.00 | 0.00 | 0.00 | 88 | 1008.3 |
| 20260905032448 | 17 | 284 | 0.0 | 0.0 | 0.00 | 0.00 | 0.00 | 88 | 1008.3 |
| 20260905031947 | 17 | 284 | 0.0 | 0.0 | 0.00 | 0.00 | 0.00 | 87 | 1008.3 |
| 20260905025938 | 17 | 284 | 0.0 | 3.2 | 0.00 | 0.00 | 0.00 | 87 | 1008.1 |
| 20260905025431 | 17 | 284 | 1.6 | 8.0 | 0.00 | 0.00 | 0.00 | 87 | 1008.0 |
| 20260905024928 | 17 | 284 | 1.6 | 8.0 | 0.00 | 0.00 | 0.00 | 87 | 1008.0 |
| 20260905024426 | 18 | 285 | 3.2 | 9.7 | 0.00 | 0.00 | 0.00 | 87 | 1008.0 |
| 20260905023921 | 18 | 285 | 3.2 | 9.7 | 0.00 | 0.00 | 0.00 | 86 | 1008.0 |
| 20260905023420 | 18 | 284 | 3.2 | 8.0 | 0.00 | 0.00 | 0.00 | 86 | 1008.0 |
| 20260905022919 | 18 | 284 | 3.2 | 8.0 | 0.00 | 0.00 | 0.00 | 86 | 1008.0 |
| 20260905022418 | 18 | 284 | 3.2 | 8.0 | 0.00 | 0.00 | 0.00 | 85 | 1008.0 |
| 20260905021912 | 18 | 281 | 4.8 | 11.3 | 0.00 | 0.00 | 0.00 | 85 | 1008.0 |
| 20260905021410 | 18 | 281 | 4.8 | 11.3 | 0.00 | 0.00 | 0.00 | 84 | 1008.0 |
| 20260905020909 | 19 | 275 | 4.8 | 11.3 | 0.00 | 0.00 | 0.00 | 82 | 1008.0 |
| 20260905020409 | 19 | 315 | 4.8 | 9.7 | 0.00 | 0.00 | 0.00 | 81 | 1008.0 |
| 20260905015909 | 20 | 336 | 3.2 | 8.0 | 0.00 | 0.00 | 0.00 | 81 | 1008.0 |
| 20260905014907 | 20 | 299 | 3.2 | 9.7 | 0.00 | 0.00 | 0.00 | 80 | 1007.9 |
| 20260905013857 | 20 | 299 | 3.2 | 8.0 | 0.00 | 0.00 | 0.00 | 78 | 1007.9 |
| 20260905013356 | 20 | 299 | 3.2 | 8.0 | 0.00 | 0.00 | 0.00 | 77 | 1007.9 |
| 20260905012357 | 21 | 322 | 3.2 | 9.7 | 0.00 | 0.00 | 0.00 | 76 | 1007.8 |
| 20260905011855 | 21 | 325 | 3.2 | 9.7 | 0.00 | 0.00 | 0.00 | 75 | 1007.8 |
| 20260905011355 | 21 | 325 | 4.8 | 14.5 | 0.00 | 0.00 | 0.00 | 76 | 1007.9 |
| 20260905010853 | 21 | 267 | 6.4 | 14.5 | 0.00 | 0.00 | 0.00 | 75 | 1007.9 |
| 20260905010351 | 22 | 314 | 6.4 | 11.3 | 0.00 | 0.00 | 0.00 | 74 | 1007.9 |
| 20260905005850 | 22 | 315 | 4.8 | 12.9 | 0.00 | 0.00 | 0.00 | 75 | 1008.0 |
| 20260905005350 | 22 | 325 | 6.4 | 12.9 | 0.00 | 0.00 | 0.00 | 74 | 1008.0 |
| 20260905004849 | 22 | 267 | 6.4 | 12.9 | 0.00 | 0.00 | 0.00 | 72 | 1008.0 |
| 20260905004353 | 22 | 316 | 6.4 | 14.5 | 0.00 | 0.00 | 0.00 | 73 | 1007.9 |
| 20260905003848 | 22 | 313 | 6.4 | 14.5 | 0.00 | 0.00 | 0.00 | 72 | 1007.9 |
| 20260905003347 | 22 | 336 | 4.8 | 11.3 | 0.00 | 0.00 | 0.00 | 72 | 1007.9 |
| 20260905002844 | 23 | 315 | 4.8 | 12.9 | 0.00 | 0.00 | 0.00 | 70 | 1007.8 |
| 20260905001340 | 23 | 340 | 6.4 | 14.5 | 0.00 | 0.00 | 0.00 | 70 | 1007.6 |
| 20260905000837 | 23 | 15 | 4.8 | 14.5 | 0.00 | 0.00 | 0.00 | 70 | 1007.6 |
| 20260905000334 | 23 | 333 | 6.4 | 12.9 | 0.00 | 0.00 | 0.00 | 69 | 1007.6 |
| 20260904235834 | 23 | 315 | 6.4 | 14.5 | 0.00 | 0.00 | 0.00 | 69 | 1007.5 |
| 20260904235331 | 23 | 346 | 6.4 | 14.5 | 0.00 | 0.00 | 0.00 | 69 | 1007.5 |
| 20260904234835 | 23 | 337 | 6.4 | 14.5 | 0.00 | 0.00 | 0.00 | 69 | 1007.5 |
| 20260904234330 | 23 | 0 | 8.0 | 14.5 | 0.00 | 0.00 | 0.00 | 69 | 1007.5 |
| 20260904233829 | 24 | 314 | 6.4 | 14.5 | 0.00 | 0.00 | 0.00 | 68 | 1007.5 |
| 20260904233328 | 24 | 341 | 6.4 | 16.1 | 0.00 | 0.00 | 0.00 | 67 | 1007.5 |
| 20260904232825 | 24 | 21 | 6.4 | 16.1 | 0.00 | 0.00 | 0.00 | 67 | 1007.5 |
| 20260904232327 | 25 | 325 | 6.4 | 12.9 | 0.00 | 0.00 | 0.00 | 66 | 1007.5 |
| 20260904231825 | 24 | 326 | 8.0 | 14.5 | 0.00 | 0.00 | 0.00 | 67 | 1007.5 |
| 20260904231324 | 25 | 322 | 6.4 | 14.5 | 0.00 | 0.00 | 0.00 | 64 | 1007.5 |
| 20260904230823 | 25 | 0 | 4.8 | 12.9 | 0.00 | 0.00 | 0.00 | 64 | 1007.5 |
| 20260904230325 | 25 | 311 | 4.8 | 11.3 | 0.00 | 0.00 | 0.00 | 65 | 1007.5 |
| 20260904225316 | 25 | 339 | 6.4 | 16.1 | 0.00 | 0.00 | 0.00 | 64 | 1007.7 |
| 20260904224315 | 25 | 316 | 6.4 | 14.5 | 0.00 | 0.00 | 0.00 | 64 | 1007.7 |
| 20260904223814 | 25 | 329 | 6.4 | 14.5 | 0.00 | 0.00 | 0.00 | 64 | 1007.7 |
| 20260904223312 | 25 | 257 | 6.4 | 14.5 | 0.00 | 0.00 | 0.00 | 65 | 1007.7 |
| 20260904222813 | 25 | 331 | 8.0 | 14.5 | 0.00 | 0.00 | 0.00 | 65 | 1007.8 |
| 20260904222308 | 25 | 317 | 8.0 | 17.7 | 0.00 | 0.00 | 0.00 | 64 | 1007.8 |
| 20260904221807 | 26 | 320 | 6.4 | 17.7 | 0.00 | 0.00 | 0.00 | 63 | 1007.8 |
| 20260904221310 | 25 | 319 | 8.0 | 14.5 | 0.00 | 0.00 | 0.00 | 63 | 1007.9 |
| 20260904220805 | 25 | 313 | 8.0 | 16.1 | 0.00 | 0.00 | 0.00 | 63 | 1007.9 |
| 20260904220304 | 26 | 309 | 6.4 | 16.1 | 0.00 | 0.00 | 0.00 | 63 | 1007.9 |
| 20260904215804 | 25 | 317 | 6.4 | 16.1 | 0.00 | 0.00 | 0.00 | 63 | 1007.9 |
| 20260904215300 | 25 | 327 | 8.0 | 14.5 | 0.00 | 0.00 | 0.00 | 64 | 1007.9 |
| 20260904214759 | 26 | 310 | 8.0 | 17.7 | 0.00 | 0.00 | 0.00 | 61 | 1007.9 |
| 20260904214254 | 26 | 306 | 6.4 | 17.7 | 0.00 | 0.00 | 0.00 | 62 | 1007.9 |
| 20260904213753 | 25 | 310 | 8.0 | 14.5 | 0.00 | 0.00 | 0.00 | 64 | 1007.9 |
| 20260904213251 | 26 | 320 | 8.0 | 14.5 | 0.00 | 0.00 | 0.00 | 62 | 1007.9 |
| 20260904212749 | 26 | 18 | 6.4 | 17.7 | 0.00 | 0.00 | 0.00 | 62 | 1008.0 |
| 20260904212250 | 26 | 313 | 6.4 | 17.7 | 0.00 | 0.00 | 0.00 | 61 | 1008.1 |
| 20260904211747 | 26 | 347 | 6.4 | 14.5 | 0.00 | 0.00 | 0.00 | 62 | 1008.0 |
| 20260904211251 | 25 | 325 | 6.4 | 14.5 | 0.00 | 0.00 | 0.00 | 63 | 1008.0 |
| 20260904210746 | 26 | 0 | 6.4 | 16.1 | 0.00 | 0.00 | 0.00 | 61 | 1008.0 |
| 20260904210246 | 26 | 335 | 6.4 | 16.1 | 0.00 | 0.00 | 0.00 | 62 | 1008.0 |
| 20260904205744 | 26 | 333 | 8.0 | 16.1 | 0.00 | 0.00 | 0.00 | 62 | 1007.9 |
| 20260904205244 | 26 | 350 | 8.0 | 16.1 | 0.00 | 0.00 | 0.00 | 62 | 1007.9 |
| 20260904204742 | 26 | 325 | 8.0 | 14.5 | 0.00 | 0.00 | 0.00 | 60 | 1008.0 |
| 20260904204242 | 26 | 305 | 8.0 | 14.5 | 0.00 | 0.00 | 0.00 | 59 | 1008.0 |
| 20260904203241 | 27 | 329 | 6.4 | 12.9 | 0.00 | 0.00 | 0.00 | 58 | 1008.0 |
| 20260904202742 | 27 | 12 | 6.4 | 11.3 | 0.00 | 0.00 | 0.00 | 58 | 1008.1 |
| 20260904202239 | 27 | 321 | 6.4 | 14.5 | 0.00 | 0.00 | 0.00 | 58 | 1008.1 |
| 20260904201738 | 27 | 15 | 4.8 | 16.1 | 0.00 | 0.00 | 0.00 | 58 | 1008.1 |
| 20260904201237 | 27 | 325 | 4.8 | 16.1 | 0.00 | 0.00 | 0.00 | 59 | 1008.1 |
| 20260904200738 | 27 | 318 | 6.4 | 16.1 | 0.00 | 0.00 | 0.00 | 58 | 1008.1 |
| 20260904200236 | 27 | 325 | 6.4 | 12.9 | 0.00 | 0.00 | 0.00 | 59 | 1008.1 |
| 20260904195734 | 27 | 320 | 6.4 | 12.9 | 0.00 | 0.00 | 0.00 | 59 | 1008.2 |
| 20260904194740 | 27 | 323 | 6.4 | 12.9 | 0.00 | 0.00 | 0.00 | 58 | 1008.2 |
| 20260904194234 | 27 | 306 | 4.8 | 12.9 | 0.00 | 0.00 | 0.00 | 59 | 1008.2 |
| 20260904193233 | 27 | 27 | 4.8 | 9.7 | 0.00 | 0.00 | 0.00 | 60 | 1008.2 |
| 20260904192729 | 26 | 309 | 3.2 | 9.7 | 0.00 | 0.00 | 0.00 | 61 | 1008.4 |
| 20260904192230 | 26 | 288 | 3.2 | 8.0 | 0.00 | 0.00 | 0.00 | 60 | 1008.4 |
| 20260904191727 | 26 | 18 | 3.2 | 8.0 | 0.00 | 0.00 | 0.00 | 61 | 1008.3 |
| 20260904191224 | 26 | 326 | 3.2 | 8.0 | 0.00 | 0.00 | 0.00 | 62 | 1008.5 |
| 20260904190724 | 26 | 0 | 3.2 | 6.4 | 0.00 | 0.00 | 0.00 | 61 | 1008.5 |
| 20260904190223 | 26 | 355 | 1.6 | 6.4 | 0.00 | 0.00 | 0.00 | 63 | 1008.5 |
| 20260904185726 | 25 | 355 | 3.2 | 9.7 | 0.00 | 0.00 | 0.00 | 63 | 1008.7 |
| 20260904185221 | 25 | 355 | 3.2 | 9.7 | 0.00 | 0.00 | 0.00 | 63 | 1008.7 |
| 20260904184716 | 25 | 22 | 3.2 | 9.7 | 0.00 | 0.00 | 0.00 | 64 | 1008.7 |
| 20260904184212 | 25 | 25 | 3.2 | 9.7 | 0.00 | 0.00 | 0.00 | 64 | 1008.9 |
| 20260904183711 | 25 | 27 | 3.2 | 9.7 | 0.00 | 0.00 | 0.00 | 65 | 1008.9 |
| 20260904183214 | 25 | 313 | 3.2 | 6.4 | 0.00 | 0.00 | 0.00 | 66 | 1008.9 |
| 20260904182711 | 24 | 313 | 3.2 | 6.4 | 0.00 | 0.00 | 0.00 | 68 | 1009.0 |
| 20260904182208 | 24 | 307 | 3.2 | 6.4 | 0.00 | 0.00 | 0.00 | 69 | 1009.0 |
| 20260904181201 | 23 | 306 | 3.2 | 8.0 | 0.00 | 0.00 | 0.00 | 71 | 1009.1 |
| 20260904180701 | 23 | 304 | 4.8 | 9.7 | 0.00 | 0.00 | 0.00 | 72 | 1009.1 |
| 20260904180200 | 23 | 306 | 3.2 | 9.7 | 0.00 | 0.00 | 0.00 | 71 | 1009.1 |
| 20260904175659 | 22 | 315 | 1.6 | 6.4 | 0.00 | 0.00 | 0.00 | 73 | 1009.1 |
| 20260904175200 | 22 | 315 | 3.2 | 8.0 | 0.00 | 0.00 | 0.00 | 74 | 1009.1 |
| 20260904174151 | 22 | 313 | 4.8 | 9.7 | 0.00 | 0.00 | 0.00 | 73 | 1009.1 |
| 20260904173651 | 22 | 290 | 3.2 | 8.0 | 0.00 | 0.00 | 0.00 | 74 | 1009.1 |
| 20260904173149 | 22 | 355 | 1.6 | 6.4 | 0.00 | 0.00 | 0.00 | 74 | 1009.1 |
| 20260904172644 | 22 | 0 | 1.6 | 6.4 | 0.00 | 0.00 | 0.00 | 75 | 1009.1 |
| 20260904172142 | 22 | 0 | 1.6 | 6.4 | 0.00 | 0.00 | 0.00 | 75 | 1009.1 |
| 20260904171639 | 21 | 5 | 0.0 | 4.8 | 0.00 | 0.00 | 0.00 | 78 | 1009.0 |
| 20260904171137 | 21 | 5 | 0.0 | 3.2 | 0.00 | 0.00 | 0.00 | 78 | 1008.7 |
| 20260904170636 | 21 | 5 | 1.6 | 6.4 | 0.00 | 0.00 | 0.00 | 79 | 1008.7 |
| 20260904170134 | 20 | 5 | 3.2 | 6.4 | 0.00 | 0.00 | 0.00 | 79 | 1008.7 |
| 20260904165638 | 21 | 5 | 3.2 | 6.4 | 0.00 | 0.00 | 0.00 | 79 | 1008.6 |
| 20260904165132 | 21 | 5 | 1.6 | 6.4 | 0.00 | 0.00 | 0.00 | 79 | 1008.6 |
| 20260904164629 | 21 | 5 | 0.0 | 1.6 | 0.00 | 0.00 | 0.00 | 79 | 1008.6 |
| 20260904164129 | 21 | 5 | 0.0 | 1.6 | 0.00 | 0.00 | 0.00 | 80 | 1008.5 |
| 20260904163627 | 20 | 5 | 0.0 | 0.0 | 0.00 | 0.00 | 0.00 | 82 | 1008.5 |
| 20260904162128 | 20 | 348 | 0.0 | 6.4 | 0.00 | 0.00 | 0.00 | 83 | 1008.5 |
| 20260904161122 | 18 | 333 | 0.0 | 0.0 | 0.00 | 0.00 | 0.00 | 88 | 1008.5 |
| 20260904160622 | 18 | 333 | 0.0 | 0.0 | 0.00 | 0.00 | 0.00 | 88 | 1008.5 |
| 20260904155618 | 18 | 331 | 0.0 | 0.0 | 0.00 | 0.00 | 0.00 | 91 | 1008.5 |
| 20260904155114 | 18 | 331 | 0.0 | 0.0 | 0.00 | 0.00 | 0.00 | 91 | 1008.5 |
| 20260904154613 | 18 | 331 | 0.0 | 0.0 | 0.00 | 0.00 | 0.00 | 91 | 1008.5 |
| 20260904153605 | 18 | 331 | 0.0 | 0.0 | 0.00 | 0.00 | 0.00 | 92 | 1008.5 |
| 20260904153102 | 18 | 331 | 0.0 | 0.0 | 0.00 | 0.00 | 0.00 | 93 | 1008.5 |
| 20260904152559 | 18 | 321 | 0.0 | 0.0 | 0.00 | 0.00 | 0.00 | 94 | 1008.5 |
| 20260904152056 | 17 | 321 | 0.0 | 0.0 | 0.00 | 0.00 | 0.00 | 94 | 1008.5 |
| 20260904151552 | 17 | 321 | 0.0 | 0.0 | 0.00 | 0.00 | 0.00 | 94 | 1008.5 |
| 20260904150550 | 17 | 321 | 0.0 | 0.0 | 0.00 | 0.00 | 0.00 | 94 | 1008.5 |
| 20260904145045 | 17 | 321 | 0.0 | 0.0 | 0.00 | 0.00 | 0.00 | 94 | 1008.4 |
| 20260904144542 | 17 | 321 | 0.0 | 0.0 | 0.00 | 0.00 | 0.00 | 95 | 1008.4 |
| 20260904144043 | 17 | 321 | 0.0 | 0.0 | 0.00 | 0.00 | 0.00 | 95 | 1008.3 |
| 20260904143044 | 17 | 321 | 0.0 | 0.0 | 0.00 | 0.00 | 0.00 | 94 | 1008.3 |
| 20260904142038 | 17 | 321 | 0.0 | 0.0 | 0.00 | 0.00 | 0.00 | 94 | 1008.2 |
| 20260904141537 | 17 | 321 | 0.0 | 0.0 | 0.00 | 0.00 | 0.00 | 95 | 1008.2 |
| 20260904141037 | 17 | 321 | 0.0 | 0.0 | 0.00 | 0.00 | 0.00 | 95 | 1008.0 |
| 20260904140532 | 16 | 321 | 0.0 | 0.0 | 0.00 | 0.00 | 0.00 | 95 | 1007.9 |
| 20260904140032 | 16 | 321 | 0.0 | 0.0 | 0.00 | 0.00 | 0.00 | 94 | 1007.9 |
| 20260904135529 | 16 | 321 | 0.0 | 0.0 | 0.00 | 0.00 | 0.00 | 94 | 1007.9 |
| 20260904135029 | 16 | 321 | 0.0 | 0.0 | 0.00 | 0.00 | 0.00 | 94 | 1007.9 |
| 20260904134526 | 16 | 321 | 0.0 | 0.0 | 0.00 | 0.00 | 0.00 | 94 | 1007.9 |
| 20260904134030 | 16 | 321 | 0.0 | 0.0 | 0.00 | 0.00 | 0.00 | 94 | 1007.9 |
| 20260904133520 | 16 | 321 | 0.0 | 1.6 | 0.00 | 0.00 | 0.00 | 94 | 1007.9 |
| 20260904133016 | 17 | 321 | 0.0 | 1.6 | 0.00 | 0.00 | 0.00 | 94 | 1007.9 |
| 20260904132515 | 17 | 321 | 0.0 | 0.0 | 0.00 | 0.00 | 0.00 | 94 | 1007.8 |
| 20260904132007 | 17 | 321 | 0.0 | 0.0 | 0.00 | 0.00 | 0.00 | 94 | 1007.8 |
| 20260904131505 | 17 | 321 | 0.0 | 0.0 | 0.00 | 0.00 | 0.00 | 94 | 1007.8 |
| 20260904131000 | 17 | 321 | 0.0 | 0.0 | 0.00 | 0.00 | 0.00 | 94 | 1007.9 |
| 20260904130454 | 17 | 321 | 0.0 | 0.0 | 0.00 | 0.00 | 0.00 | 93 | 1007.9 |
| 20260904125951 | 17 | 321 | 0.0 | 0.0 | 0.00 | 0.00 | 0.00 | 93 | 1007.9 |
| 20260904124448 | 17 | 321 | 0.0 | 0.0 | 0.00 | 0.00 | 0.00 | 93 | 1007.6 |
| 20260904123441 | 17 | 321 | 0.0 | 0.0 | 0.00 | 0.00 | 0.00 | 93 | 1007.6 |
| 20260904122942 | 17 | 321 | 0.0 | 0.0 | 0.00 | 0.00 | 0.00 | 93 | 1007.6 |
| 20260904122438 | 17 | 321 | 0.0 | 0.0 | 0.00 | 0.00 | 0.00 | 93 | 1007.6 |
| 20260904121433 | 17 | 321 | 0.0 | 0.0 | 0.00 | 0.00 | 0.00 | 93 | 1007.6 |
| 20260904120928 | 17 | 321 | 0.0 | 0.0 | 0.00 | 0.00 | 0.00 | 93 | 1007.7 |
| 20260904120429 | 17 | 321 | 0.0 | 0.0 | 0.00 | 0.00 | 0.00 | 93 | 1007.7 |
| 20260904115924 | 17 | 321 | 0.0 | 0.0 | 0.00 | 0.00 | 0.00 | 93 | 1007.7 |
| 20260904114918 | 17 | 321 | 0.0 | 1.6 | 0.00 | 0.00 | 0.00 | 93 | 1007.7 |
| 20260904114415 | 17 | 321 | 0.0 | 1.6 | 0.00 | 0.00 | 0.00 | 93 | 1007.7 |
| 20260904113915 | 17 | 321 | 0.0 | 1.6 | 0.00 | 0.00 | 0.00 | 93 | 1007.8 |
| 20260904113415 | 17 | 321 | 0.0 | 0.0 | 0.00 | 0.00 | 0.00 | 93 | 1007.8 |
| 20260904112917 | 17 | 321 | 0.0 | 0.0 | 0.00 | 0.00 | 0.00 | 93 | 1007.8 |
| 20260904112408 | 17 | 321 | 0.0 | 0.0 | 0.00 | 0.00 | 0.00 | 93 | 1007.6 |
| 20260904110859 | 17 | 321 | 0.0 | 0.0 | 0.00 | 0.00 | 0.00 | 93 | 1007.6 |
| 20260904110400 | 17 | 321 | 0.0 | 0.0 | 0.00 | 0.00 | 0.00 | 93 | 1007.6 |
| 20260904105856 | 17 | 321 | 0.0 | 0.0 | 0.00 | 0.00 | 0.00 | 93 | 1007.5 |
| 20260904104349 | 17 | 321 | 0.0 | 3.2 | 0.00 | 0.00 | 0.00 | 93 | 1007.5 |
| 20260904103842 | 17 | 321 | 1.6 | 3.2 | 0.00 | 0.00 | 0.00 | 92 | 1007.5 |
| 20260904103339 | 17 | 321 | 0.0 | 3.2 | 0.00 | 0.00 | 0.00 | 92 | 1007.5 |
| 20260904102331 | 17 | 321 | 0.0 | 3.2 | 0.00 | 0.00 | 0.00 | 92 | 1007.5 |
| 20260904101827 | 17 | 321 | 0.0 | 0.0 | 0.00 | 0.00 | 0.00 | 92 | 1007.5 |
| 20260904101328 | 17 | 321 | 0.0 | 0.0 | 0.00 | 0.00 | 0.00 | 92 | 1007.5 |
| 20260904100822 | 17 | 321 | 0.0 | 0.0 | 0.00 | 0.00 | 0.00 | 92 | 1007.5 |
| 20260904100319 | 17 | 321 | 0.0 | 1.6 | 0.00 | 0.00 | 0.00 | 92 | 1007.5 |
| 20260904095820 | 17 | 321 | 0.0 | 1.6 | 0.00 | 0.00 | 0.00 | 92 | 1007.5 |
| 20260904095320 | 17 | 321 | 0.0 | 1.6 | 0.00 | 0.00 | 0.00 | 91 | 1007.5 |
| 20260904094824 | 17 | 321 | 0.0 | 3.2 | 0.00 | 0.00 | 0.00 | 91 | 1007.5 |
| 20260904094314 | 17 | 321 | 0.0 | 3.2 | 0.00 | 0.00 | 0.00 | 91 | 1007.5 |
| 20260904093816 | 17 | 321 | 0.0 | 4.8 | 0.00 | 0.00 | 0.00 | 91 | 1007.5 |
| 20260904093316 | 17 | 321 | 0.0 | 4.8 | 0.00 | 0.00 | 0.00 | 91 | 1007.5 |
| 20260904092305 | 17 | 321 | 0.0 | 1.6 | 0.00 | 0.00 | 0.00 | 91 | 1007.5 |
| 20260904091757 | 17 | 321 | 0.0 | 3.2 | 0.00 | 0.00 | 0.00 | 91 | 1007.5 |
| 20260904091258 | 17 | 321 | 0.0 | 3.2 | 0.00 | 0.00 | 0.00 | 91 | 1007.5 |
| 20260904090752 | 17 | 321 | 0.0 | 3.2 | 0.00 | 0.00 | 0.00 | 91 | 1007.5 |
| 20260904085753 | 17 | 321 | 0.0 | 3.2 | 0.00 | 0.00 | 0.00 | 90 | 1007.5 |
| 20260904084744 | 17 | 321 | 0.0 | 3.2 | 0.00 | 0.00 | 0.00 | 91 | 1007.5 |
| 20260904084244 | 17 | 321 | 0.0 | 0.0 | 0.00 | 0.00 | 0.00 | 91 | 1007.8 |
| 20260904083743 | 17 | 321 | 0.0 | 1.6 | 0.00 | 0.00 | 0.00 | 90 | 1007.8 |
| 20260904083243 | 17 | 321 | 0.0 | 1.6 | 0.00 | 0.00 | 0.00 | 90 | 1007.8 |
| 20260904082740 | 17 | 321 | 0.0 | 1.6 | 0.00 | 0.00 | 0.00 | 90 | 1007.9 |
| 20260904082243 | 17 | 321 | 0.0 | 1.6 | 0.00 | 0.00 | 0.00 | 90 | 1007.9 |
| 20260904081741 | 17 | 321 | 0.0 | 1.6 | 0.00 | 0.00 | 0.00 | 90 | 1007.9 |
| 20260904081233 | 17 | 321 | 0.0 | 1.6 | 0.00 | 0.00 | 0.00 | 90 | 1008.0 |
| 20260904080733 | 17 | 321 | 0.0 | 3.2 | 0.00 | 0.00 | 0.00 | 90 | 1008.0 |
| 20260904080233 | 17 | 321 | 0.0 | 3.2 | 0.00 | 0.00 | 0.00 | 90 | 1008.0 |
| 20260904075724 | 17 | 321 | 0.0 | 1.6 | 0.00 | 0.00 | 0.00 | 90 | 1008.0 |
| 20260904075218 | 17 | 321 | 0.0 | 1.6 | 0.00 | 0.00 | 0.00 | 90 | 1008.0 |
| 20260904074718 | 17 | 321 | 0.0 | 1.6 | 0.00 | 0.00 | 0.00 | 90 | 1008.0 |
| 20260904073714 | 17 | 321 | 1.6 | 4.8 | 0.00 | 0.00 | 0.00 | 90 | 1008.0 |
| 20260904073213 | 17 | 321 | 1.6 | 4.8 | 0.00 | 0.00 | 0.00 | 90 | 1008.0 |
| 20260904072707 | 17 | 321 | 0.0 | 4.8 | 0.00 | 0.00 | 0.00 | 90 | 1008.0 |
| 20260904072208 | 17 | 320 | 0.0 | 0.0 | 0.00 | 0.00 | 0.00 | 90 | 1008.0 |
| 20260904071708 | 17 | 320 | 0.0 | 0.0 | 0.00 | 0.00 | 0.00 | 90 | 1008.0 |
| 20260904071206 | 17 | 320 | 0.0 | 0.0 | 0.00 | 0.00 | 0.00 | 89 | 1008.0 |
| 20260904070203 | 17 | 320 | 0.0 | 0.0 | 0.00 | 0.00 | 0.00 | 89 | 1008.0 |
| 20260904065154 | 17 | 320 | 0.0 | 0.0 | 0.00 | 0.00 | 0.00 | 89 | 1008.0 |
| 20260904064152 | 17 | 320 | 0.0 | 0.0 | 0.00 | 0.00 | 0.00 | 89 | 1008.0 |
| 20260904063650 | 17 | 320 | 0.0 | 0.0 | 0.00 | 0.00 | 0.00 | 89 | 1008.0 |
| 20260904063146 | 17 | 320 | 0.0 | 0.0 | 0.00 | 0.00 | 0.00 | 89 | 1008.0 |
| 20260904062648 | 17 | 320 | 0.0 | 0.0 | 0.00 | 0.00 | 0.00 | 89 | 1008.0 |
| 20260904062145 | 17 | 319 | 0.0 | 0.0 | 0.00 | 0.00 | 0.00 | 89 | 1008.0 |
| 20260904061651 | 17 | 319 | 0.0 | 0.0 | 0.00 | 0.00 | 0.00 | 89 | 1008.0 |
| 20260904060638 | 17 | 319 | 0.0 | 0.0 | 0.00 | 0.00 | 0.00 | 89 | 1008.0 |
| 20260904060138 | 17 | 319 | 0.0 | 0.0 | 0.00 | 0.00 | 0.00 | 89 | 1008.0 |
| 20260904055638 | 17 | 319 | 0.0 | 0.0 | 0.00 | 0.00 | 0.00 | 89 | 1008.0 |
| 20260904054631 | 17 | 319 | 0.0 | 0.0 | 0.00 | 0.00 | 0.00 | 89 | 1008.0 |
| 20260904054134 | 17 | 319 | 0.0 | 0.0 | 0.00 | 0.00 | 0.00 | 89 | 1007.9 |
| 20260904053630 | 17 | 319 | 0.0 | 1.6 | 0.00 | 0.00 | 0.00 | 89 | 1007.9 |
| 20260904053128 | 17 | 316 | 0.0 | 3.2 | 0.00 | 0.00 | 0.00 | 89 | 1008.0 |